2018-058A

Last updated on July 11, 2018, 12:15 a.m. UTC

1 43537U 18058A   18191.41421038 -.00766005  00000-0 -12610-1 0  9994
2 43537  51.6423 262.9536 0003503 288.5658  71.4531 15.53971123    87

Satellite is not in orbit.